DELTA 1 DEB, 42634

Orbit data source: Space-Track

DELTA 1 DEB, 42634 is space debris in SSO originally from a launch on Thu, 12 Jun 1975 UTC launched from the Air Force Western Test Range (AFWTR). Debris objects in space refer to the collection of defunct objects orbiting the Earth. Examples of debris include non-operational satellites, rocket bodies, and fragments generated from explosions, collisions, or faulty payload assembly.

Loading next visibility...
Identifier
42634, 1975-052LT
Orbit
SSO
Country
Flag of USUS
Related business
Manufacturer
Unknown
Mission
Spacecraft
Bus & Motor
Unknown
Mass
Unknown
Launch date (UTC)
1975-06-12 (51 years ago)
Launch vehicle
Unknown
Launch site
Air Force Western Test Range (AFWTR)
Object type
Payload
Rocket body
Debris
Shape & HBR
Unknown shape, 0.1 m
Radar Cross Section
Small (<0.1 m²)

Expand to show TLE details & history
Last TLE update: 2 days ago

TLE from 2 days ago
0 DELTA 1 DEB
1 42634U 75052LT  26171.34363938  .00000043  00000-0  16989-3 0  9997
2 42634  99.7529  36.4336 0060519 273.4584  85.9621 13.34409521612609
Epoch: 2026-06-20T08:14Z
TLE epoch observation values (Epoch: 2026-06-20T08:14:50.442Z)
Latitude
0.00004°
Longitude
4.1638°
Altitude
1,130.013 km
Speed
7.289 km/s
True Right ascension
02h 25m 44s
True Declination
0° 00' 00"
Sunlit
Object was in daylight at epoch
Visualization orbit readout
Latitude
Unknown
Longitude
Unknown
Altitude
Unknown
Speed
Unknown
Apparent Right ascension
Unknown
Apparent Declination
Unknown
Sunlit
N/A
Visualization observer readout
Local Sidereal Time
21:42:25
Azimuth
Unknown
Elevation
Unknown
Doppler factor
Unknown
Orbital elements
Apogee altitude
1,172.925 km
Perigee altitude
1,082.078 km
Semi-major axis
7,505.639 km
Eccentricity
0.00605
Inclination
99.7529°
RAAN
36.4336°
Arg. of periapsis
273.4584°
True anomaly
86.65423°
Mean anomaly
85.9621°
Eccentric anomaly
86.30813°
Mean motion
3.33781 °/min
Orbital period
107.86 mins
BSTAR
0.00016989
Loading maneuver chart data...
Computing Atmospheric mass density...
Loading historical data...
Loading historical data...
Loading historical data...
Loading historical data...
Loading historical data...
Loading historical data...
Loading historical data...

Documentation

Showing up to 5 results
|